Skip Page Navigation
NASA JPL Caltech
NASA Logo - Jet Propulsion Laboratory + View the NASA Portal
+ Center for Near-Earth Object Studies
JPL Home Earth Solar System Stars & Galaxies Technology
JPL Solar System Dynamics
BODIES ORBITS EPHEMERIDES TOOLS PHYSICAL DATA DISCOVERY FAQ SITE MAP
IMPORTANT: The SSD Announcement email list is now available. Major changes are coming in the near future, including possible hostname and/or URL changes. To be notified of such changes, subscribe to this email list.

Please visit this page for more details.


JPL Small-Body Database Browser
Search: [ help ]  
293 Brasilia
Classification: Main-belt Asteroid          SPK-ID: 2000293
Ephemeris | Orbit Diagram | Orbital Elements | Mission Design | Physical Parameters | Discovery Circumstances | Close-Approach Data ]

[ hide orbit diagram ]

For accurate long-term ephemerides, please instead use our Horizons system.This orbit viewer was implemented using two-body methods, and hence should not be used for determining accurate long-term trajectories (over several years or decades) or planetary encounter circumstances.


[ revert to old Java-based viewer ]

Orbital Elements at Epoch 2458600.5 (2019-Apr-27.0) TDB
Reference: JPL 31 (heliocentric ecliptic J2000)
 Element Value Uncertainty (1-sigma)   Units 
e .1062089072014438 3.8384e-08  
a 2.861250416520386 1.3525e-08 au
q 2.55736013655208 1.1317e-07 au
i 15.58255025858892 5.3575e-06 deg
node 61.30618490229 1.5763e-05 deg
peri 86.84720353664488 2.978e-05 deg
M 311.6607551992851 2.5629e-05 deg
tp 2458837.872055556957
(2019-Dec-20.37205556)
0.00012631 TDB
period 1767.79633924361
4.84
1.2534e-05
3.432e-08
d
yr
n .2036433677388617 1.4439e-09 deg/d
Q 3.165140696488693 1.4961e-08 au
  Orbit Determination Parameters
   # obs. used (total)      2095  
   data-arc span      40171 days (109.98 yr)  
   first obs. used      1909-04-20  
   last obs. used      2019-04-14  
   planetary ephem.      DE431  
   SB-pert. ephem.      SB431-N16  
   condition code      0  
   norm. resid. RMS      .43029  
   source      ORB  
   producer      Otto Matic  
   solution date      2019-Jul-12 17:59:46  

Additional Information
 Earth MOID = 1.62743 au 
 Jupiter MOID = 2.02039 au 
 T_jup = 3.239 
[ show covariance matrix ]

Ephemeris | Orbit Diagram | Orbital Elements | Mission Design | Physical Parameters | Discovery Circumstances | Close-Approach Data ]

Physical Parameter Table
Parameter Symbol Value Units Sigma Reference Notes
absolute magnitude H 9.94   n/a IRAS-A-FPA-3-RDR-IMPS-V6.0 IRAS observations used: 31
diameter diameter 57.486 km 1.442 urn:nasa:pds:neowise_diameters_albedos::2.0[mainbelt] (http://adsabs.harvard.edu/abs/2014ApJ...791..121M)  
rotation period rot_per 8.17 h n/a LCDB (Rev. 2019-January); Warner et al., 2009 Published Reference List:
[Oey, J. (2006) Minor Planet Bull. 33, 96-99.]
[Stephens, R.D. (2006) Minor Planet Bull. 33, 100-101.]
[Collaborative Asteroid Lightcurve Link (CALL) (2011) http://www.minorplanetobserver.com/DATA/submissions_results.htm]
[Hanus, J.; Durech, J.; Oszkiewicz, D.A.; Behrend, R.; et al. (2016) Astron. Astrophys. 586, A108.]
[Pilcher, F. (2018) Posting on CALL web site: http://www.minorplanet.info/call.html]
geometric albedo albedo 0.056   0.004 urn:nasa:pds:neowise_diameters_albedos::2.0[mainbelt] (http://adsabs.harvard.edu/abs/2014ApJ...791..121M)  
B-V BV 0.721   0.010 EAR-A-5-DDR-UBV-MEAN-VALUES-V1.2 #obs=3; phase (min.=9.47, mean=10.28, max.=10.83) deg.
U-B UB 0.352   0.036 EAR-A-5-DDR-UBV-MEAN-VALUES-V1.2 #obs=3; phase (min.=9.47, mean=10.28, max.=10.83) deg.
Tholen spectral type spec_T CX   n/a EAR-A-5-DDR-TAXONOMY-V4.0 used 2 color indices

293 Brasilia          Discovered 1890-May-20 by Charlois, A. at Nice
Reference: DISCOVERY.DBLast Updated: 2003-08-29

[ show close-approach data ]
Alternate Designations
 A909 HB 
Ephemeris | Orbit Diagram | Orbital Elements | Mission Design | Physical Parameters | Discovery Circumstances | Close-Approach Data ]
ABOUT SSD CREDITS/AWARDS PRIVACY/COPYRIGHT GLOSSARY LINKS
FirstGov 2019-Oct-15 07:55 UT
(server date/time)  
NASA Home Page
Site Manager:   Ryan S. Park
Webmaster  Alan B. Chamberlin